Location: Banff
(51.1667°N, 115.5667°W)
Time: 17:54:40
(UTC+00:00)

Courier 1B - Pass Details

Date: 09 December 2021
Orbit: 962 x 1209 km, 28.3° (Epoch: 25 January)

Event Time Altitude Azimuth Distance (km) Brightness Sun altitude
Rises 00:37:31 0° 231° (SW) 4,068 12.6 -9.2°
Reaches altitude 10° 00:43:15 10° 198° (SSW) 3,054 10.7 -10.0°
Maximum altitude 00:44:59 11° 185° (S) 2,969 10.4 -10.3°
Drops below altitude 10° 00:46:42 10° 171° (S) 3,016 10.3 -10.5°
Sets 00:52:13 0° 138° (SE) 3,904 10.4 -11.3°
